Regional Weather Roundup
Issued by NWS

Home | Current Version | Previous Version | Graphics & Text | Print | Product List | Glossary On
Versions: 1 2 3 4 5 6 7 8 9 10 11 12 13 14 15 16 17 18 19 20 21 22 23 24 25 26 27 28 29 30 31 32 33 34 35 36 37 38 39 40 41 42 43 44 45 46 47 48 49 50
145
ASUS43 KDMX 231001
RWRIA

WEATHER ROUNDUP FOR IOWA
NATIONAL WEATHER SERVICE DES MOINES IA
400 AM CST MON JAN 23 2017

NOTE: "FAIR" INDICATES FEW OR NO CLOUDS BELOW 12,000 FEET WITH NO
SIGNIFICANT WEATHER AND/OR OBSTRUCTIONS TO VISIBILITY.

* - THESE STATIONS ARE NOT NWS STATIONS...THUS NOT UNDER NWS
QUALITY CONTROL.  THEY ALSO DO NOT REPORT WEATHER SUCH
AS PRECIPITATION OR FOG.

IAZ001>003-012>014-020>022-031>034-043>046-231100-
   NORTHWEST IOWA

CITY           SKY/WX    TMP DP  RH WIND       PRES   REMARKS
CARROLL *      CLOUDY    32  32 100 NW9       29.86F WCI  24
CHEROKEE *     CLOUDY    32  29  90 N7        29.87F WCI  26
DENISON *      CLOUDY    30  28  93 NW10      29.86S WCI  21
LE MARS *      CLOUDY    32  28  86 N8        29.88F WCI  25
ORANGE CITY *  CLOUDY    30  28  93 N6        29.86F WCI  24
SHELDON *      CLOUDY    32  32 100 NW7       29.84F WCI  26
SIOUX CITY     CLOUDY    34  29  82 NW9       29.91R WCI  27
SPENCER          N/A    N/A N/A N/A MISG      29.86S
STORM LAKE *   CLOUDY    30  28  93 N12       29.85F WCI  21
$$

IAZ055>058-069>071-079>083-090>094-231100-
   SOUTHWEST IOWA

CITY           SKY/WX    TMP DP  RH WIND       PRES   REMARKS
ATLANTIC *     CLOUDY    32  30  93 NW10      29.89R WCI  24
AUDUBON *      CLOUDY    30  28  93 NW6       29.87F WCI  24
CLARINDA *     CLOUDY    32  30  93 NW9G17    29.92S WCI  24
COUNCIL BLFS * CLOUDY    30  32 100 NW7       29.90F WCI  23
CRESTON *      CLOUDY    32  30  93 NW10      29.87S WCI  24
HARLAN  *      CLOUDY    32  32 100 NW10      29.93R WCI  24
LAMONI         CLOUDY    31  29  92 NW12      29.85F WCI  22
RED OAK *      CLOUDY    32  30  93 N8        29.91R WCI  25
SHENANDOAH *   CLOUDY    32  30  93 NW8       29.92S WCI  25
$$

IAZ047>049-059>061-072>074-084-231100-
   CENTRAL IOWA

CITY           SKY/WX    TMP DP  RH WIND       PRES   REMARKS
AMES           CLOUDY    32  32 100 W8        29.86S WCI  25
ANKENY *       CLOUDY    32  30  93 W8        29.88S FOG     WCI  25
BOONE *        CLOUDY    32  32 100 NW8       29.85S WCI  25
CHARITON *     CLOUDY    32  32 100 NW13      29.85S FOG     WCI  22
DES MOINES     CLOUDY    32  29  88 NW10      29.86F WCI  24
GRINNELL*      CLOUDY    33  33  99 W10       29.84S FOG     WCI  25
KNOXVILLE *    CLOUDY    32  32 100 NW12G17   29.83F FOG     WCI  23
MARSHALLTOWN   CLOUDY    33  33 100 NW12      29.83F WCI  24
NEWTON *       CLOUDY    32  32 100 NW12      29.83F FOG     WCI  23
PELLA *        CLOUDY    34  33  97 NW7       29.86S FOG     WCI  28
PERRY *        CLOUDY    32  31  97 NW7       29.87F FOG     WCI  26
$$

IAZ004>006-015-016-023>025-035-036-231100-
   NORTH CENTRAL IOWA

CITY           SKY/WX    TMP DP  RH WIND       PRES   REMARKS
ALGONA *       CLOUDY    32  30  93 NW7       29.85S WCI  26
CLARION *      CLOUDY    32  32 100 NW8       29.85S FOG     WCI  25
ESTHERVILLE    CLOUDY    31  30  96 NW9       29.84S WCI  23
FORT DODGE *   CLOUDY    32  28  86 W8        29.86S WCI  25
MASON CITY     CLOUDY    32  29  88 NW9       29.84F WCI  24
FOREST CITY *  CLOUDY    32  32 100 NW7       29.84S WCI  26
WEBSTER CITY * CLOUDY    32 N/A N/A NW8       29.84S WCI  25
IOWA FALLS *   CLOUDY    32  32  99 NW9       29.85S FOG     WCI  25
$$

IAZ007>011-017>019-026>030-037>042-050>054-066-231100-
   NORTHEAST IOWA

CITY           SKY/WX    TMP DP  RH WIND       PRES   REMARKS
CEDAR RAPIDS   CLOUDY    34  33  96 NW10      29.80S FOG     WCI  26
CHARLES CITY * CLOUDY    32  32 100 NW9       29.83S FOG     WCI  24
CLINTON *      CLOUDY    35  34  96 NW7       29.78F WCI  29
DECORAH *      CLOUDY    34  32  93 VRB5      29.79F WCI  30
DUBUQUE        CLOUDY    35  34  96 N10       29.77S FOG     WCI  27
MONTICELLO *   CLOUDY    36  34  93 NW10      29.79R WCI  28
OELWEIN *      CLOUDY    34  34 100 NW14      29.81S FOG     WCI  24
WATERLOO       CLOUDY    33  32  96 NW7       29.82F FOG     WCI  27
$$

IAZ064-065-067-068-078-231100-
   EAST CENTRAL IOWA

CITY           SKY/WX    TMP DP  RH WIND       PRES   REMARKS
DAVENPORT      CLOUDY    35  33  92 NW6       29.78F FOG     WCI  30
IOWA CITY      CLOUDY    37  34  89 NW5       29.82S WCI  33
MUSCATINE *    CLOUDY    37  34  87 NW9       29.81S WCI  31
QUAD CITIES    CLOUDY    37  34  89 NW6       29.78S WCI  32
$$

IAZ062-063-075>077-085>089-095>099-231100-
   SOUTHEAST IOWA

CITY           SKY/WX    TMP DP  RH WIND       PRES   REMARKS
BURLINGTON     CLOUDY    37  35  92 NW9       29.80R WCI  30
FAIRFIELD *    CLOUDY    36  36 100 NW8       29.82S FOG     WCI  29
FORT MADISON * CLOUDY    37  36  93 NW10      29.81S WCI  30
KEOKUK *         N/A     37 N/A N/A NW8       29.80F WCI  31
OSKALOOSA *    CLOUDY    35  34  99 NW12      29.83S FOG     WCI  26
CENTERVILLE *  CLOUDY    34  34 100 NW3       29.84F
OTTUMWA        CLOUDY    37  34  89 NW12      29.81F WCI  29
WASHINGTON *   CLOUDY    36  36 100 NW10      29.83S FOG     WCI  28
$$

ABBREVIATIONS USED IN REMARKS
   TC - TEMPERATURES IN CELSIUS
  WCI - WIND CHILL INDEX
   HX - HEAT INDEX
  VSB - VISIBILITY
$$





USA.gov is the U.S. government's official web portal to all federal, state and local government web resources and services.